Weather History for VABB - October, 2011

Change the Weather History Date:

Friday, October 21, 2011

  Actual Average Record
Temperature  
Mean Temperature 82 °F -  
Max Temperature 93 °F 90 °F 100 °F (2003)
Min Temperature 72 °F 73 °F 73 °F (2004)
Cooling Degree Days 18    
Growing Degree Days 32 (Base 50)    
Moisture  
Dew Point 71 °F    
Average Humidity 64    
Maximum Humidity 89    
Minimum Humidity 32    
Precipitation  
Precipitation 0.00 in - - ()
Sea Level Pressure  
Sea Level Pressure 29.78 in    
Wind  
Wind Speed 3 mph ()    
Max Wind Speed 13 mph    
Max Gust Speed -    
Visibility 1.6 miles    
Events      
Averages and records for this station are not official NWS values.
T = Trace of Precipitation, MM = Missing Value Source: Averaged Metar Reports

Daily Weather History Graph

Daily Weather History Graph

Search for Another Location

Airport or City:

Trip Planner

Search our weather history database for the weather conditions in past years. The results will help you decide how hot, cold, wet, or windy it might be!

Date:

Astronomy

Oct. 21, 2011 Rise Set
Actual Time 6:34 AM IST 6:11 PM IST
Civil Twilight 6:12 AM IST 6:34 PM IST
Nautical Twilight 5:46 AM IST 6:59 PM IST
Astronomical Twilight 5:21 AM IST 7:25 PM IST
Moon 12:47 AM IST (10/21) 1:53 PM IST (10/21)
Length of Visible Light 12h 21m
Length of Day
11h 37m
Last Quarter, 38% of the Moon is Illuminated
Oct 21
Last Quarter
Oct 27
New
Nov 2
First Quarter
Nov 11
Full
Nov 18
Last Quarter

Hourly Weather History & Observations

Time (IST) Temp. Heat Index Dew Point Humidity Pressure Visibility Wind Dir Wind Speed Gust Speed Precip Events Conditions
12:10 AM 82.4 °F 90.9 °F 77.0 °F 84% 29.80 in 0.9 mi Calm Calm - N/A   Haze
12:40 AM 82.4 °F 90.9 °F 77.0 °F 84% 29.80 in 0.9 mi ESE 4.6 mph - N/A   Haze
1:10 AM 80.6 °F 87.1 °F 77.0 °F 89% 29.77 in 0.8 mi Calm Calm - N/A   Mist
1:40 AM 80.6 °F 87.1 °F 77.0 °F 89% 29.77 in 0.8 mi Calm Calm - N/A   Mist
2:10 AM 80.6 °F 87.1 °F 77.0 °F 89% 29.77 in 0.7 mi Calm Calm - N/A   Mist
2:30 AM 77 °F - 74 °F 87% 29.78 in 1 mi Calm Calm - -   Haze
2:40 AM 80.6 °F 87.1 °F 77.0 °F 89% 29.77 in 0.7 mi Calm Calm - N/A   Mist
3:10 AM 80.6 °F 87.1 °F 77.0 °F 89% 29.77 in 0.7 mi Calm Calm - N/A   Mist
3:40 AM 78.8 °F - 75.2 °F 89% 29.77 in 0.9 mi NNE 4.6 mph - N/A   Mist
4:40 AM 78.8 °F - 71.6 °F 78% 29.80 in 1.1 mi Calm Calm - N/A   Mist
5:10 AM 78.8 °F - 71.6 °F 78% 29.80 in 1.2 mi Calm Calm - N/A   Mist
5:30 AM 74 °F - 71 °F 86% 29.80 in 1 mi Calm Calm - -   Haze
6:10 AM 77.0 °F - 73.4 °F 89% 29.80 in 0.7 mi Calm Calm - N/A   Mist
6:40 AM 77.0 °F - 73.4 °F 89% 29.83 in 0.6 mi Calm Calm - N/A   Partly Cloudy
7:10 AM 78.8 °F - 73.4 °F 83% 29.83 in 0.6 mi ENE 3.5 mph - N/A   Mist
7:40 AM 78.8 °F - 75.2 °F 89% 29.83 in 0.6 mi Calm Calm - N/A   Haze
8:10 AM 80.6 °F 86.2 °F 75.2 °F 84% 29.86 in 0.7 mi NE 3.5 mph - N/A   Haze
8:30 AM 77 °F - 74 °F 88% 29.86 in 1 mi Calm Calm - -   Haze
9:10 AM 82.4 °F 87.2 °F 71.6 °F 70% 29.86 in 1.1 mi ENE 4.6 mph - N/A   Haze
9:40 AM 84.2 °F 89.6 °F 71.6 °F 66% 29.86 in 1.2 mi NNE 4.6 mph - N/A   Smoke
10:10 AM 84.2 °F 89.6 °F 71.6 °F 66% 29.86 in 1.4 mi NE 3.5 mph - N/A   Smoke
10:40 AM 86.0 °F 90.4 °F 69.8 °F 58% 29.86 in 1.6 mi North 8.1 mph - N/A   Smoke
11:10 AM 87.8 °F 92.6 °F 69.8 °F 55% 29.83 in 1.6 mi North 5.8 mph - N/A   Smoke
11:30 AM 89 °F - 71 °F 45% 29.83 in 2 mi Calm Calm - -   Smoke
11:40 AM 91.4 °F 94.0 °F 66.2 °F 43% 29.83 in 1.6 mi NE 6.9 mph - N/A   Smoke
12:40 PM 93.2 °F 94.1 °F 62.6 °F 36% 29.77 in 1.9 mi NE 5.8 mph - N/A   Smoke
1:10 PM 95.0 °F 96.0 °F 62.6 °F 34% 29.77 in 1.9 mi SSW 3.5 mph - N/A   Smoke
1:40 PM 95.0 °F 95.2 °F 60.8 °F 32% 29.74 in 2.5 mi East 5.8 mph - N/A   Smoke
2:10 PM 95.0 °F 95.2 °F 60.8 °F 32% 29.74 in 2.5 mi NE 3.5 mph - N/A   Smoke
2:30 PM 93 °F - 69 °F 36% 29.74 in 2 mi NW 3.5 mph - -   Scattered Clouds
2:40 PM 95.0 °F 96.0 °F 62.6 °F 34% 29.74 in 2.5 mi North 8.1 mph - N/A   Smoke
3:10 PM 93.2 °F 100.5 °F 71.6 °F 49% 29.71 in 2.5 mi NNW 12.7 mph - N/A   Smoke
3:40 PM 91.4 °F 100.1 °F 73.4 °F 55% 29.71 in 2.5 mi NW 9.2 mph - N/A   Smoke
4:10 PM 89.6 °F 96.2 °F 71.6 °F 55% 29.71 in 2.5 mi NNW 10.4 mph - N/A   Smoke
4:40 PM 89.6 °F 96.2 °F 71.6 °F 55% 29.71 in 2.5 mi NNW 9.2 mph - N/A   Smoke
5:10 PM 89.6 °F 93.4 °F 68.0 °F 49% 29.71 in 2.5 mi NW 9.2 mph - N/A   Smoke
5:30 PM 89 °F - 70 °F 44% 29.73 in 2 mi NW 3.5 mph - -  
5:40 PM 89.6 °F 94.7 °F 69.8 °F 52% 29.74 in 2.5 mi NW 6.9 mph - N/A   Smoke
6:10 PM 87.8 °F 92.6 °F 69.8 °F 55% 29.74 in 2.5 mi NW 6.9 mph - N/A   Smoke
6:40 PM 87.8 °F 93.8 °F 71.6 °F 58% 29.74 in 2.5 mi NNW 4.6 mph - N/A   Smoke
7:10 PM 86.0 °F 90.4 °F 69.8 °F 58% 29.74 in 2.5 mi NNW 5.8 mph - N/A   Smoke
7:40 PM 86.0 °F 91.8 °F 71.6 °F 62% 29.77 in 2.5 mi NNW 4.6 mph - N/A   Smoke
9:10 PM 86.0 °F 88.2 °F 66.2 °F 51% 29.77 in 1.9 mi NE 6.9 mph - N/A   Smoke
9:40 PM 86.0 °F 88.2 °F 66.2 °F 51% 29.80 in 1.9 mi East 3.5 mph - N/A   Smoke
10:10 PM 84.2 °F 86.6 °F 66.2 °F 55% 29.80 in 1.6 mi Calm Calm - N/A   Smoke
10:40 PM 84.2 °F 86.6 °F 66.2 °F 55% 29.80 in 1.7 mi Calm Calm - N/A   Smoke
11:10 PM 84.2 °F 87.3 °F 68.0 °F 58% 29.80 in 1.7 mi NW 3.5 mph - N/A   Smoke
11:30 PM 76 °F - 70 °F 76% 29.79 in 1 mi Calm Calm - -   Haze
11:40 PM 82.4 °F 85.4 °F 68.0 °F 62% 29.77 in 1.6 mi SSE 4.6 mph - N/A   Smoke